Weather History for Kirksville, MO

Change the Weather History Date:

Wednesday, September 18, 2013

  Actual Average Record
Temperature  
Mean Temperature 77 °F 63 °F  
Max Temperature 90 °F 75 °F 96 °F (1933)
Min Temperature 63 °F 52 °F 35 °F (1956)
Degree Days  
Heating Degree Days 0 3  
Month to date heating degree days 19 32  
Since 1 July heating degree days 32 39  
Cooling Degree Days 12 2  
Month to date cooling degree days 157 66  
Year to date cooling degree days 967 910  
Growing Degree Days 26 (Base 50)    
Moisture  
Dew Point 65 °F    
Average Humidity 74    
Maximum Humidity 100    
Minimum Humidity 47    
Precipitation  
Precipitation 0.02 in 0.14 in 3.62 in (1978)
Month to date precipitation 0.93 2.65  
Year to date precipitation 30.82 30.06  
Sea Level Pressure  
Sea Level Pressure 29.97 in    
Wind  
Wind Speed 10 mph (South)    
Max Wind Speed 22 mph    
Max Gust Speed 30 mph    
Visibility 5 miles    
Events Rain    
T = Trace of Precipitation, MM = Missing Value Source: NWS Daily Summary

Daily Weather History Graph

Daily Weather History Graph

Search for Another Location

Airport:

Trip Planner

Search our weather history database for the weather conditions in past years. The results will help you decide how hot, cold, wet, or windy it might be!

Date:

Astronomy

Sep. 18, 2013 Rise Set
Actual Time 6:54 AM CDT 7:13 PM CDT
Civil Twilight 6:27 AM CDT 7:40 PM CDT
Nautical Twilight 5:55 AM CDT 8:12 PM CDT
Astronomical Twilight 5:22 AM CDT 8:44 PM CDT
Moon 6:36 PM CDT (9/18) 5:57 AM CDT (9/18)
Length of Visible Light 13h 13m
Length of Day
12h 19m
Waxing Gibbous, 99% of the Moon is Illuminated
Sep 18
Waxing Gibbous
Sep 19
Full
Sep 26
Last Quarter
Oct 4
New
Oct 11
First Quarter

Hourly Weather History & Observations

Time (CDT) Temp. Heat Index Dew Point Humidity Pressure Visibility Wind Dir Wind Speed Gust Speed Precip Events Conditions
12:12 AM 64.4 °F - 64.4 °F 100% 30.06 in 2.5 mi SSE 6.9 mph - N/A   Overcast
12:34 AM 64.4 °F - 64.4 °F 100% 30.06 in 3.0 mi SSE 9.2 mph - N/A   Overcast
12:55 AM 64.9 °F - 64.0 °F 97% 30.06 in 3.0 mi SSE 8.1 mph - N/A   Overcast
1:09 AM 64.4 °F - 64.4 °F 100% 30.05 in 2.5 mi SSE 6.9 mph - N/A   Overcast
1:55 AM 64.9 °F - 64.0 °F 97% 30.05 in 3.0 mi SSE 8.1 mph - N/A   Overcast
2:03 AM 64.4 °F - 64.4 °F 100% 30.05 in 2.5 mi SSE 6.9 mph - N/A   Overcast
2:55 AM 64.0 °F - 63.0 °F 96% 30.03 in 2.0 mi SE 6.9 mph - N/A   Overcast
3:55 AM 63.0 °F - 63.0 °F 100% 30.01 in 1.8 mi SSE 8.1 mph - N/A   Overcast
4:13 AM 62.6 °F - 62.6 °F 100% 30.01 in 2.0 mi SSE 8.1 mph - N/A   Overcast
4:37 AM 62.6 °F - 62.6 °F 100% 30.00 in 1.8 mi SSE 6.9 mph - N/A   Overcast
4:44 AM 62.6 °F - 62.6 °F 100% 30.00 in 1.8 mi SSE 6.9 mph - N/A   Overcast
4:55 AM 63.0 °F - 62.1 °F 97% 30.00 in 1.8 mi SSE 8.1 mph - N/A   Mostly Cloudy
5:04 AM 62.6 °F - 62.6 °F 100% 30.00 in 2.0 mi SSE 8.1 mph - N/A   Mostly Cloudy
5:20 AM 62.6 °F - 62.6 °F 100% 30.00 in 1.8 mi SSE 8.1 mph - N/A   Overcast
5:28 AM 62.6 °F - 62.6 °F 100% 30.00 in 2.0 mi SSE 6.9 mph - N/A   Overcast
5:55 AM 63.0 °F - 62.1 °F 97% 29.99 in 1.8 mi SSE 6.9 mph - N/A   Mostly Cloudy
6:06 AM 62.6 °F - 62.6 °F 100% 29.99 in 1.8 mi SSE 8.1 mph - N/A   Scattered Clouds
6:26 AM 62.6 °F - 62.6 °F 100% 29.99 in 2.0 mi SSE 8.1 mph - N/A   Partly Cloudy
6:55 AM 63.0 °F - 63.0 °F 100% 29.99 in 1.8 mi South 6.9 mph - N/A   Clear
7:03 AM 62.6 °F - 62.6 °F 100% 29.99 in 1.2 mi SSE 6.9 mph - N/A   Partly Cloudy
7:55 AM 66.0 °F - 64.9 °F 96% 30.00 in 1.8 mi South 8.1 mph - N/A   Clear
8:03 AM 66.2 °F - 64.4 °F 94% 30.00 in 2.0 mi South 9.2 mph - N/A   Clear
8:26 AM 68.0 °F - 66.2 °F 94% 30.00 in 3.0 mi South 9.2 mph - N/A   Clear
8:55 AM 71.1 °F - 66.0 °F 84% 30.00 in 5.0 mi South 8.1 mph - N/A   Haze
9:55 AM 77.0 °F - 66.9 °F 71% 29.99 in 8.0 mi SSW 12.7 mph 21.9 mph N/A   Clear
10:55 AM 81.0 °F 83.3 °F 66.9 °F 62% 29.98 in 9.0 mi SSW 12.7 mph 18.4 mph N/A   Clear
11:55 AM 84.0 °F 87.0 °F 68.0 °F 58% 29.96 in 10.0 mi SSW 12.7 mph - N/A   Clear
12:55 PM 79.0 °F - 70.0 °F 74% 29.95 in 4.0 mi SSW 10.4 mph 18.4 mph 0.02 in Rain Light Rain
1:55 PM 87.1 °F 89.9 °F 66.9 °F 51% 29.92 in 10.0 mi SW 12.7 mph 20.7 mph 0.00 in   Clear
2:55 PM 88.0 °F 90.3 °F 66.0 °F 48% 29.90 in 10.0 mi SSW 11.5 mph 21.9 mph N/A   Clear
3:55 PM 89.1 °F 91.3 °F 66.0 °F 46% 29.88 in 10.0 mi SW 15.0 mph 27.6 mph N/A   Scattered Clouds
4:55 PM 87.1 °F 89.9 °F 66.9 °F 51% 29.87 in 10.0 mi SSW 15.0 mph - N/A   Clear
5:55 PM 86.0 °F 88.8 °F 66.9 °F 53% 29.87 in 10.0 mi South 11.5 mph 21.9 mph N/A   Clear
6:55 PM 81.0 °F 82.7 °F 64.9 °F 58% 29.87 in 10.0 mi South 11.5 mph 21.9 mph N/A   Clear
7:55 PM 78.1 °F - 64.0 °F 62% 29.88 in 10.0 mi South 11.5 mph 18.4 mph N/A   Clear
8:55 PM 75.9 °F - 64.9 °F 69% 29.89 in 10.0 mi South 9.2 mph - N/A   Clear
9:55 PM 73.9 °F - 64.9 °F 73% 29.91 in 10.0 mi South 8.1 mph - N/A   Clear
10:55 PM 73.0 °F - 64.9 °F 76% 29.91 in 10.0 mi South 8.1 mph - N/A   Clear
11:55 PM 73.0 °F - 66.0 °F 79% 29.90 in 10.0 mi South 10.4 mph - N/A   Clear